TIME,DELAY(SENSOR),PRES,T(CTD),SAL,OXYGEN,RAWTEMP,T(OPTODE),TCPHASE,TURBIDITY,TURBIDITY_GAIN,FLUOR,BETA,CDOM,ED411.5,ED443.8,ED489.6,PAR,COMP,TILT,TILTY(TILT),CHECK
1341713520,6468,146.6300048828125000,4.9085998535156250,34.9856986999511700,350.3594055175781000,761.5787963867188000,4.8810100555419920,34.0937309265136700,16,3,50,113,65,2147242732,2147557978,2147571231,2147363574,129,0,-12,57818
1341713583,6469,143.6499938964843800,4.9085001945495605,34.9859008789062500,350.1120910644531000,761.5756225585938000,4.8811240196228030,34.1019897460937500,16,3,50,116,64,2147244534,2147556374,2147571140,2147361366,3451,0,-12,24178
1341713644,6468,140.7700042724609400,4.9085001945495605,34.9860992431640600,350.1390075683594000,761.5729980468750000,4.8812122344970700,34.1007308959960940,16,3,49,114,64,2147245800,2147559510,2147569910,2147357169,3239,0,-12,24374
1341713707,6468,137.8800048828125000,4.9085001945495605,34.9863014221191400,350.0837097167969000,761.5667724609375000,4.8814301490783690,34.1029396057128900,16,3,49,121,64,2147246079,2147559012,2147571012,2147362628,3012,0,-12,60063
1341713768,6467,135.0700073242187500,4.9089999198913570,34.9859008789062500,349.9327087402344000,761.5618286132812000,4.8816027641296390,34.1078987121582000,16,3,50,117,64,2147246038,2147558226,2147569686,2147363776,2817,0,-12,5625
1341713831,6504,132.2400054931640600,4.9088001251220700,34.9861984252929700,350.0620117187500000,761.5535278320312000,4.8818969726562500,34.1031608581543000,16,3,50,115,64,2147242906,2147558043,2147573151,2147362253,2664,0,-12,45837
1341713892,6465,129.5000000000000000,4.9093999862670900,34.9860992431640600,349.9348144531250000,761.5355224609375000,4.8825259208679200,34.1072883605957000,16,3,50,112,64,2147248671,2147559433,2147573699,2147362207,2503,0,-12,8341
1341713955,6467,126.7300033569336000,4.9106001853942870,34.9859008789062500,349.7885131835937500,761.5089111328125000,4.8834571838378910,34.1114692687988300,16,3,50,113,64,2147244840,2147559628,2147572273,2147361599,2444,0,-12,29786
1341714016,6467,124.1100006103515600,4.9113001823425290,34.9856986999511700,349.7370910644531000,761.4918212890625000,4.8840560913085940,34.1127090454101560,16,3,50,123,64,2147247858,2147558939,2147570609,2147362020,2307,0,-12,21884
1341714079,6467,121.4400024414062500,4.9113998413085940,34.9861984252929700,349.6852111816406000,761.4816284179688000,4.8844127655029300,34.1144218444824200,16,3,50,117,64,2147243227,2147558418,2147571085,2147361036,2114,0,-12,27812
1341714140,6467,118.9199981689453100,4.9120998382568360,34.9854011535644500,349.7164001464844000,761.4766235351562000,4.8845877647399900,34.1133689880371100,16,3,50,116,64,2147243862,2147559830,2147572150,2147361718,1986,0,-11,6385
1341714203,6504,116.3700027465820300,4.9130997657775880,34.9854011535644500,349.6706848144531000,761.4498291015625000,4.8855271339416500,34.1142997741699200,16,3,50,114,64,2147243012,2147558833,2147569910,2147362138,1806,0,-12,12464
1341714264,6469,113.9300003051757800,4.9134001731872560,34.9855003356933600,349.7226867675781000,761.4332885742188000,4.8861031532287600,34.1121788024902340,16,3,50,116,64,2147244310,2147558930,2147571830,2147364620,1697,0,-12,57046
1341714352,6467,109.8899993896484400,4.9138998985290530,34.9855995178222660,349.7083129882812500,761.4310913085938000,4.8861808776855470,34.1124992370605500,16,3,50,122,64,2147240553,2147559794,2147569498,2147359784,1480,0,-12,14411
1341714413,6468,106.3399963378906200,4.9187002182006840,34.9849014282226560,349.5340881347656000,761.3037719726562000,4.8906350135803220,34.1158599853515600,16,3,50,121,65,2147248219,2147557837,2147571638,2147359277,1354,0,-12,38390
1341714476,6468,102.6299972534179700,4.9218997955322270,34.9855003356933600,349.5317993164062500,761.1987915039062000,4.8943138122558590,34.1141014099121100,16,3,50,122,64,2147247990,2147559771,2147571414,2147363606,1247,0,-12,11658
1341714537,6468,99.0199966430664000,4.9253997802734375,34.9854011535644500,349.4916992187500000,761.0933227539062000,4.8980078697204590,34.1132202148437500,16,3,50,123,65,2147243432,2147559483,2147570866,2147359424,1165,0,-12,160
1341714600,6466,95.2900009155273400,4.9282999038696290,34.9851989746093750,349.4938964843750000,761.0125122070312000,4.9008369445800780,34.1114196777343750,16,3,50,122,64,2147245115,2147558811,2147570166,2147360479,1168,0,-12,40348
1341714661,6466,91.6600036621093800,4.9313001632690430,34.9850997924804700,349.4136962890625000,760.9307861328125000,4.9036960601806640,34.1126899719238300,16,3,50,125,64,2147246399,2147559935,2147570052,2147359931,1067,0,-12,28913
1341714724,6467,87.8499984741211000,4.9412999153137210,34.9850006103515600,349.2777099609375000,760.6179809570312000,4.9146437644958500,34.1109886169433600,16,3,50,125,64,2147245745,2147557151,2147570856,2147362235,973,0,-12,4820
1341714785,6468,84.2099990844726600,4.9514999389648440,34.9844017028808600,349.1575012207031000,760.3685302734375000,4.9233741760253910,34.1101913452148440,16,3,50,125,66,2147244790,2147556562,2147570431,2147359487,599,0,-12,14758
1341714848,6466,80.4100036621093800,4.9576997756958010,34.9841995239257800,349.2452087402344000,760.1567993164062000,4.9307818412780760,34.1029090881347660,16,3,51,124,66,2147241379,2147559318,2147569307,2147359363,227,0,-12,16799
1341714909,6466,76.7699966430664000,4.9675998687744140,34.9844017028808600,349.3089904785156000,759.8798828125000000,4.9404721260070800,34.0953788757324200,16,3,52,137,65,2147240749,2147557539,2147570258,2147362614,3355,0,-12,59471
1341714997,6468,72.0599975585937500,4.9932999610900880,34.9849014282226560,349.2388000488281000,759.2103881835938000,4.9638919830322270,34.0847206115722660,59,3,53,127,65,2147245435,2147558829,2147569000,2147359273,3038,0,-12,45969
1341715058,6469,69.6299972534179700,4.9956002235412600,34.9847984313964840,349.3638000488281000,759.0985717773438000,4.9678020477294920,34.0780601501464840,16,3,54,134,64,2147243670,2147561330,2147570202,2147361123,3006,0,-12,9466
1341715121,6467,67.2099990844726600,4.9986000061035160,34.9854011535644500,349.2408142089844000,758.9481201171875000,4.9730639457702640,34.0792503356933600,16,3,52,152,64,2147243793,2147559779,2147573736,2147359697,2907,0,-12,50734
1341715182,6468,64.8799972534179700,5.0153999328613280,34.9852981567382800,349.3106079101562500,758.6566772460938000,4.9832549095153810,34.0712203979492200,115,3,54,130,66,2147245722,2147559546,2147569599,2147364383,2300,0,-12,60201
1341715270,6466,61.0099983215332000,5.0546998977661130,34.9865989685058600,348.9356079101562500,757.4561157226562000,5.0252299308776855,34.0603599548339840,15,3,56,136,66,2147244387,2147560232,2147569723,2147361275,2101,0,-12,24172
1341715331,6468,57.7400016784668000,5.0837998390197750,34.9866981506347660,348.9783935546875000,756.5712280273438000,5.0561518669128420,34.0414314270019500,19,3,60,138,66,2147244913,2147557842,2147571862,2147361873,2166,0,-12,13904
1341715394,6468,54.6300010681152340,5.1760001182556150,34.9880981445312500,348.4425964355469000,754.1286010742188000,5.1414470672607420,34.0115318298339840,21,3,72,138,64,2147243258,2147558907,2147571679,2147360776,2051,0,-12,32516
1341715455,6468,51.7900009155273440,5.2748999595642090,34.9914016723632800,348.6274108886719000,751.3613281250000000,5.2379741668701170,33.9511489868164060,16,3,88,144,65,2147244323,2147558372,2147569773,2147360671,1634,0,-12,50132
1341715518,6470,48.9199981689453100,5.3524999618530270,34.9936981201171900,349.2080993652344000,749.1143188476562000,5.3162670135498050,33.8876991271972660,17,3,110,167,65,2147244406,2147554838,2147570669,2147362166,1545,0,-12,50626
1341715579,6468,46.1199989318847660,5.4584999084472660,34.9977989196777340,349.9865112304687500,745.5712280273438000,5.4395728111267090,33.7929611206054700,19,3,135,176,66,2147242628,2147554646,2147570221,2147364296,1600,0,-12,48633
1341715642,6466,42.9599990844726560,5.5227999687194820,35.0009002685546900,351.6415100097656000,744.0291748046875000,5.4931769371032715,33.7077484130859400,19,3,150,191,66,2147240991,2147560118,2147570508,2147358952,1272,0,-12,19456
1341715703,6470,39.5299987792968750,5.6208000183105470,35.0003013610839840,352.7244873046875000,741.4146118164062000,5.5839920043945310,33.6212081909179700,24,3,187,200,66,2147242906,2147557836,2147572433,2147360708,1287,0,-12,12209
1341715766,6469,35.9199981689453100,5.6979999542236330,34.9990005493164060,353.8008117675781000,739.6071777343750000,5.6467127799987790,33.5512199401855500,26,3,236,254,64,2147244255,2147559007,2147574979,2147360493,649,0,-12,26557
1341715827,6469,32.4000015258789060,5.7182002067565920,35.0000991821289060,354.9003906250000000,738.2128295898438000,5.6950678825378420,33.4881401062011700,32,3,261,279,66,2147243414,2147556908,2147575244,2147362403,205,0,-12,58237
1341715890,6469,28.6599998474121100,5.9675002098083500,35.0014991760253900,355.9164123535156000,732.1732788085938000,5.9041838645935060,33.3403396606445300,47,3,427,401,66,2147242399,2147560964,2147575195,2147361754,3199,0,-12,53719
1341715951,6505,25.2700004577636720,6.1401000022888180,35.0050010681152340,359.4146118164062500,726.6660766601562000,6.0944180488586430,33.1226387023925800,61,3,538,462,66,2147244059,2147556424,2147577151,2147359624,2671,0,-12,33019
1341716014,6470,22.3600006103515620,6.8699002265930180,34.9920997619628900,362.5703125000000000,705.9044189453125000,6.8077721595764160,32.6397285461425800,94,3,714,666,66,2147243679,2147560945,2147577983,2147360392,2408,0,-12,22112
1341716075,6471,21.0900001525878900,7.2220997810363770,35.0116004943847660,374.2691040039062500,695.5839233398438000,7.1601939201354980,32.0903511047363300,101,3,797,720,66,2147240639,2147564388,2147576351,2147358605,2387,0,-12,8548
1341716166,6470,18.5000000000000000,8.9134998321533200,34.9930000305175800,370.5296936035156000,638.8547973632812000,9.0730781555175780,31.2362995147705080,114,3,886,732,65,2147247881,2147562527,2147581014,2147364292,3203,0,-13,43929
1341716227,6470,17.1900005340576170,10.4898004531860350,35.0326995849609400,368.3019104003906000,602.3806762695312000,10.2829303741455080,30.7169208526611330,117,3,858,696,64,2147244059,2147562756,2147583798,2147361229,641,0,-11,46542
1341716353,6470,14.8599996566772460,10.8145999908447270,35.0363998413085940,365.7416992187500000,588.5523071289062000,10.7378702163696290,30.5782604217529300,106,3,737,689,64,2147247428,2147564968,2147591437,2147360726,717,5,-11,40143
1341716432,6471,11.0799999237060550,10.8683996200561520,35.0472984313964840,364.3179016113281000,585.2056884765625000,10.8476696014404300,30.5696296691894530,102,3,712,716,62,2147250486,2147577343,2147601128,2147365142,3223,0,-8,198
1341716506,6469,6.5199999809265140,10.8738002777099610,35.0493011474609400,363.9696960449219000,584.7299194335938000,10.8632802963256840,30.5729293823242200,100,3,706,684,62,2147277430,2147607441,2147622934,2147379382,2055,-10,-22,26278
1341716560,6471,3.1700000762939453,10.8782997131347660,35.0491981506347660,363.6109924316406000,584.4724731445312000,10.8717203140258790,30.5798606872558600,99,3,712,630,62,2147309343,2147634024,2147649132,2147391711,2290,-17,6,33647
1341716608,6470,1.9600000381469727,0.0000000000000000,0.0000000000000000,363.7077941894531000,584.4523925781250000,10.8723697662353520,30.5767803192138670,98,3,713,594,61,2147315451,2147640735,2147651752,2147393686,2142,22,-3,6303
1341716636,6469,8.0000000000000000,0.0000000000000000,0.0000000000000000,363.6919860839844000,584.4652099609375000,10.8719501495361330,30.5774402618408200,101,3,710,591,62,2147330266,2147656200,2147662138,2147409316,731,16,5,62406
